No;Time;Interval(mi);Indoor Humidity(%);Indoor Temperature(�C);Outdoor Humidity(%);Outdoor Temperature(�C);Absolute Pressure(Hpa);Wind(m/s);Gust(m/s);Direction;Relative Pressure(Hpa);Dewpoint(�C);Windchill(�C);Total Rainfall(mm)
1;2019-12-01 00:12:01;15;53;18.2;68;5.8;1010.6;0.0;0.0;S;1013.8;0.4;5.8;503.4;
2;2019-12-01 00:27:01;15;53;18.2;68;5.9;1010.4;0.0;0.0;E;1013.6;0.5;5.9;503.4;
3;2019-12-01 00:42:01;15;53;18.2;68;5.8;1010.6;0.0;0.0;SE;1013.8;0.4;5.8;503.4;
4;2019-12-01 00:57:01;15;53;18.2;68;5.8;1010.3;0.0;0.0;SE;1013.5;0.4;5.8;503.4;
5;2019-12-01 01:12:01;15;53;18.1;67;5.9;1010.0;0.0;0.0;S;1013.2;0.2;5.9;503.4;
6;2019-12-01 01:27:01;15;53;18.1;67;5.8;1009.6;0.0;0.0;S;1012.8;0.2;5.8;503.4;
7;2019-12-01 01:42:01;15;52;18.1;68;5.8;1009.7;0.0;0.0;SE;1012.9;0.4;5.8;503.4;
8;2019-12-01 01:57:01;15;52;18.1;70;5.7;1009.8;0.0;0.0;ESE;1013.0;0.7;5.7;503.4;
9;2019-12-01 02:12:01;15;52;18.0;72;5.5;1009.8;0.0;0.0;S;1013.0;0.9;5.5;503.4;
10;2019-12-01 02:27:01;15;52;18.0;74;5.2;1009.6;0.0;0.0;S;1012.8;0.9;5.2;503.4;
11;2019-12-01 02:42:01;15;52;18.0;77;4.9;1009.6;0.0;0.0;S;1012.8;1.2;4.9;503.7;
12;2019-12-01 02:57:01;15;52;18.0;79;4.8;1009.4;0.0;0.0;S;1012.6;1.5;4.8;503.7;
13;2019-12-01 03:12:01;15;52;18.0;80;4.7;1009.6;0.0;0.0;S;1012.8;1.5;4.7;503.7;
14;2019-12-01 03:27:01;15;52;18.0;81;4.6;1009.1;0.0;0.0;S;1012.3;1.6;4.6;503.7;
15;2019-12-01 03:42:01;15;52;18.0;81;4.6;1008.6;0.0;0.0;S;1011.8;1.6;4.6;503.7;
16;2019-12-01 03:57:01;15;52;18.0;81;4.5;1008.7;0.0;0.0;S;1011.9;1.5;4.5;503.7;
17;2019-12-01 04:12:01;15;52;18.0;81;4.5;1008.6;0.0;0.0;S;1011.8;1.5;4.5;504.0;
18;2019-12-01 04:27:01;15;52;18.0;81;4.5;1008.7;0.0;0.0;S;1011.9;1.5;4.5;504.0;
19;2019-12-01 04:42:01;15;52;18.0;81;4.4;1008.8;0.0;0.0;S;1012.0;1.4;4.4;504.3;
20;2019-12-01 04:57:01;15;52;18.0;82;4.3;1008.9;0.0;0.0;S;1012.1;1.5;4.3;504.6;
21;2019-12-01 05:12:01;15;51;18.0;82;4.1;1009.0;0.0;0.0;S;1012.2;1.3;4.1;504.6;
22;2019-12-01 05:27:01;15;49;17.9;82;4.1;1009.5;0.0;0.0;S;1012.7;1.3;4.1;504.6;
23;2019-12-01 05:42:01;15;49;17.9;83;4.1;1009.2;0.0;0.0;S;1012.4;1.5;4.1;504.9;
24;2019-12-01 05:57:01;15;50;17.9;83;4.0;1009.5;0.0;0.0;S;1012.7;1.4;4.0;504.9;
25;2019-12-01 06:12:01;15;50;17.9;83;3.9;1009.5;0.0;0.0;S;1012.7;1.3;3.9;505.2;
26;2019-12-01 06:27:01;15;49;17.8;83;3.8;1009.9;0.0;0.0;S;1013.1;1.2;3.8;505.2;
27;2019-12-01 06:42:01;15;49;17.8;84;3.9;1009.8;0.0;0.0;S;1013.0;1.4;3.9;505.2;
28;2019-12-01 06:57:01;15;49;17.8;84;3.8;1009.4;0.0;0.0;S;1012.6;1.3;3.8;505.2;
29;2019-12-01 07:12:01;15;49;17.8;84;3.8;1009.8;0.0;0.0;S;1013.0;1.3;3.8;505.2;
30;2019-12-01 07:27:01;15;49;17.8;84;3.8;1009.7;0.0;0.0;S;1012.9;1.3;3.8;505.2;
31;2019-12-01 07:42:01;15;49;17.8;84;3.8;1009.8;0.0;0.0;S;1013.0;1.3;3.8;505.2;
32;2019-12-01 07:57:01;15;49;17.8;84;3.8;1010.3;0.0;0.0;SE;1013.5;1.3;3.8;505.2;
33;2019-12-01 08:12:01;15;49;17.8;84;3.9;1010.5;0.0;0.0;E;1013.7;1.4;3.9;505.2;
34;2019-12-01 08:27:01;15;49;17.8;84;3.9;1010.8;0.0;0.0;SE;1014.0;1.4;3.9;505.2;
35;2019-12-01 08:42:01;15;49;17.8;83;3.9;1011.3;0.0;0.0;E;1014.5;1.3;3.9;505.2;
36;2019-12-01 08:57:01;15;49;17.8;83;4.0;1011.1;0.0;0.0;SE;1014.3;1.4;4.0;505.5;
37;2019-12-01 09:12:01;15;49;17.8;83;4.1;1011.6;0.0;0.0;SE;1014.8;1.5;4.1;505.5;
38;2019-12-01 09:27:01;15;49;17.8;84;4.2;1011.8;0.0;0.0;E;1015.0;1.7;4.2;505.5;
39;2019-12-01 09:42:01;15;49;17.8;84;4.3;1011.7;0.0;0.0;SW;1014.9;1.8;4.3;505.5;
40;2019-12-01 09:57:01;15;49;17.7;83;4.3;1012.2;0.0;0.0;S;1015.4;1.7;4.3;505.5;
41;2019-12-01 10:12:01;15;49;17.7;83;4.1;1012.3;0.0;0.0;S;1015.5;1.5;4.1;505.5;
42;2019-12-01 10:27:01;15;49;17.7;83;4.4;1012.2;0.0;0.0;S;1015.4;1.8;4.4;505.5;
43;2019-12-01 10:42:01;15;49;17.7;83;4.6;1012.2;0.0;0.0;S;1015.4;2.0;4.6;505.5;
44;2019-12-01 10:57:01;15;49;17.7;82;4.4;1012.7;0.0;0.0;SE;1015.9;1.6;4.4;505.5;
45;2019-12-01 11:12:01;15;49;17.7;82;4.3;1012.4;0.0;0.0;SE;1015.6;1.5;4.3;505.5;
46;2019-12-01 11:27:01;15;49;17.7;82;4.3;1012.5;0.0;0.0;E;1015.7;1.5;4.3;505.5;
47;2019-12-01 11:42:01;15;49;17.7;82;4.3;1012.6;0.0;0.0;SE;1015.8;1.5;4.3;505.5;
48;2019-12-01 11:57:01;15;49;17.7;82;4.3;1012.6;0.0;0.0;E;1015.8;1.5;4.3;505.5;
49;2019-12-01 12:12:01;15;49;17.7;82;4.4;1012.6;0.0;0.0;SE;1015.8;1.6;4.4;505.5;
50;2019-12-01 12:27:01;15;48;17.7;82;4.5;1012.6;0.0;0.0;E;1015.8;1.7;4.5;505.5;
51;2019-12-01 12:42:01;15;48;17.7;81;4.4;1012.6;0.0;0.0;SE;1015.8;1.4;4.4;505.5;
52;2019-12-01 12:57:01;15;48;17.7;81;4.3;1012.5;0.0;0.0;E;1015.7;1.3;4.3;505.5;
53;2019-12-01 13:12:01;15;48;17.7;81;4.4;1012.5;0.0;0.0;E;1015.7;1.4;4.4;505.5;
54;2019-12-01 13:27:01;15;48;17.7;81;4.3;1012.3;0.0;0.0;E;1015.5;1.3;4.3;505.5;
55;2019-12-01 13:42:01;15;48;17.5;81;4.6;1012.2;0.0;0.0;ESE;1015.4;1.6;4.6;505.5;
56;2019-12-01 13:57:01;15;48;17.6;81;4.7;1012.4;0.0;0.0;E;1015.6;1.7;4.7;505.5;
57;2019-12-01 14:12:01;15;48;17.5;81;4.7;1012.4;0.0;0.0;SE;1015.6;1.7;4.7;505.5;
58;2019-12-01 14:27:01;15;48;17.5;80;4.6;1012.5;0.0;0.0;S;1015.7;1.5;4.6;505.5;
59;2019-12-01 14:42:01;15;48;17.5;80;4.5;1012.9;0.0;0.0;S;1016.1;1.4;4.5;505.5;
60;2019-12-01 14:57:01;15;48;17.5;80;4.4;1013.4;0.0;0.0;S;1016.6;1.3;4.4;505.5;
61;2019-12-01 15:12:01;15;48;17.5;80;4.3;1013.2;0.0;0.0;S;1016.4;1.2;4.3;505.5;
62;2019-12-01 15:27:01;15;48;17.5;80;4.3;1013.5;0.0;0.0;S;1016.7;1.2;4.3;505.5;
63;2019-12-01 15:42:01;15;48;17.5;80;4.5;1013.6;0.0;0.0;E;1016.8;1.4;4.5;505.5;
64;2019-12-01 15:57:01;15;48;17.6;80;4.4;1013.6;0.0;0.0;SE;1016.8;1.3;4.4;505.5;
65;2019-12-01 16:12:01;15;48;17.7;80;4.4;1014.0;0.0;0.0;E;1017.2;1.3;4.4;505.5;
66;2019-12-01 16:27:01;15;49;17.7;80;4.3;1014.1;0.0;0.0;S;1017.3;1.2;4.3;505.5;
67;2019-12-01 16:42:01;15;49;17.7;80;4.1;1014.2;0.0;0.0;E;1017.4;1.0;4.1;505.5;
68;2019-12-01 16:57:01;15;49;17.8;80;4.1;1014.7;0.0;0.0;SE;1017.9;1.0;4.1;505.5;
69;2019-12-01 17:12:01;15;49;17.8;80;4.1;1014.7;0.0;0.0;SE;1017.9;1.0;4.1;505.5;
70;2019-12-01 17:27:01;15;49;17.8;80;4.0;1015.1;0.0;0.0;S;1018.3;0.9;4.0;505.5;
71;2019-12-01 17:42:01;15;50;17.9;80;4.0;1015.3;0.0;0.0;S;1018.5;0.9;4.0;505.5;
72;2019-12-01 17:57:01;15;52;18.0;80;4.0;1015.7;0.0;0.0;SE;1018.9;0.9;4.0;505.5;
73;2019-12-01 18:12:01;15;52;18.0;80;4.0;1015.8;0.0;0.0;SE;1019.0;0.9;4.0;505.5;
74;2019-12-01 18:27:01;15;52;18.0;80;4.0;1015.9;0.0;0.0;SE;1019.1;0.9;4.0;505.5;
75;2019-12-01 18:42:01;15;53;18.1;80;4.1;1016.3;0.0;0.0;E;1019.5;1.0;4.1;505.5;
76;2019-12-01 18:57:01;15;55;18.2;80;4.1;1016.3;0.0;0.0;E;1019.5;1.0;4.1;505.5;
77;2019-12-01 19:12:01;15;62;18.3;80;4.0;1016.5;0.0;0.0;E;1019.7;0.9;4.0;505.5;
78;2019-12-01 19:27:01;15;66;18.5;80;3.9;1016.5;0.0;0.0;E;1019.7;0.8;3.9;505.5;
79;2019-12-01 19:42:01;15;65;18.5;81;3.8;1016.6;0.0;0.0;NE;1019.8;0.8;3.8;505.5;
80;2019-12-01 19:57:01;15;64;18.6;81;3.7;1016.6;0.0;0.0;SE;1019.8;0.7;3.7;505.8;
81;2019-12-01 20:12:01;15;63;18.7;81;3.7;1016.8;0.0;0.0;E;1020.0;0.7;3.7;505.8;
82;2019-12-01 20:27:01;15;62;18.7;81;3.6;1016.9;0.0;0.0;SE;1020.1;0.6;3.6;505.8;
83;2019-12-01 20:42:01;15;62;18.7;81;3.5;1017.1;0.0;0.0;E;1020.3;0.6;3.5;505.8;
84;2019-12-01 20:57:01;15;60;18.7;81;3.6;1017.2;0.0;0.0;S;1020.4;0.6;3.6;505.8;
85;2019-12-01 21:12:01;15;59;18.5;80;3.4;1017.5;0.0;0.0;S;1020.7;0.3;3.4;505.8;
86;2019-12-01 21:27:00;15;59;18.3;80;3.2;1017.6;0.0;0.0;E;1020.8;0.1;3.2;505.8;
87;2019-12-01 21:42:00;15;59;18.2;80;3.0;1017.9;0.0;0.0;E;1021.1;-0.1;3.0;505.8;
88;2019-12-01 21:57:01;15;58;18.2;80;2.8;1017.9;0.0;0.0;E;1021.1;-0.3;2.8;505.8;
89;2019-12-01 22:12:01;15;58;18.2;80;2.9;1018.2;0.0;0.0;E;1021.4;-0.2;2.9;505.8;
90;2019-12-01 22:27:01;15;57;18.1;79;3.0;1018.1;0.0;0.0;E;1021.3;-0.3;3.0;505.8;
91;2019-12-01 22:42:01;15;57;18.1;79;3.1;1018.8;0.0;0.0;E;1022.0;-0.2;3.1;505.8;
92;2019-12-01 22:57:01;15;56;18.0;77;3.0;1018.7;0.0;0.0;S;1021.9;-0.6;3.0;505.8;
93;2019-12-01 23:12:01;15;56;18.0;77;2.7;1019.3;0.0;0.0;S;1022.5;-0.9;2.7;505.8;
94;2019-12-01 23:27:01;15;56;17.9;77;2.4;1019.1;0.0;0.0;S;1022.3;-1.2;2.4;505.8;
95;2019-12-01 23:42:01;15;56;17.8;78;2.2;1019.4;0.0;0.0;S;1022.6;-1.2;2.2;505.8;
96;2019-12-01 23:57:01;15;56;17.8;78;2.0;1019.4;0.0;0.0;S;1022.6;-1.4;2.0;505.8;
97;2019-12-02 00:12:01;15;55;17.7;78;1.8;1019.5;0.0;0.0;S;1022.7;-1.6;1.8;505.8;
98;2019-12-02 00:27:01;15;55;17.7;79;1.6;1019.6;0.0;0.0;S;1022.8;-1.6;1.6;505.8;
99;2019-12-02 00:42:01;15;55;17.6;80;1.4;1019.6;0.0;0.0;S;1022.8;-1.7;1.4;505.8;
100;2019-12-02 00:57:01;15;54;17.5;80;1.3;1019.8;0.0;0.0;S;1023.0;-1.8;1.3;505.8;
101;2019-12-02 01:12:01;15;54;17.5;80;1.2;1020.0;0.0;0.0;S;1023.2;-1.9;1.2;505.8;
102;2019-12-02 01:27:01;15;54;17.4;80;1.0;1020.3;0.0;0.0;S;1023.5;-2.1;1.0;505.8;
103;2019-12-02 01:42:01;15;54;17.4;80;0.9;1020.3;0.0;0.0;S;1023.5;-2.2;0.9;505.8;
104;2019-12-02 01:57:01;15;54;17.4;80;0.7;1020.8;0.0;0.0;S;1024.0;-2.3;0.7;505.8;
105;2019-12-02 02:12:01;15;54;17.4;80;0.8;1020.9;0.0;0.0;S;1024.1;-2.3;0.8;505.8;
106;2019-12-02 02:27:01;15;54;17.3;80;0.8;1020.9;0.0;0.0;S;1024.1;-2.3;0.8;505.8;
107;2019-12-02 02:42:01;15;54;17.4;80;0.6;1021.1;0.0;0.0;S;1024.3;-2.4;0.6;505.8;
108;2019-12-02 02:57:01;15;53;17.3;80;0.7;1021.0;0.0;0.0;S;1024.2;-2.3;0.7;505.8;
109;2019-12-02 03:12:01;15;53;17.4;80;0.7;1021.2;0.0;0.0;S;1024.4;-2.3;0.7;505.8;
110;2019-12-02 03:27:01;15;53;17.3;80;0.9;1021.6;0.0;0.0;S;1024.8;-2.2;0.9;505.8;
111;2019-12-02 03:42:01;15;52;17.3;80;0.8;1021.8;0.0;0.0;S;1025.0;-2.3;0.8;505.8;
112;2019-12-02 03:57:01;15;52;17.2;80;0.7;1021.9;0.0;0.0;S;1025.1;-2.3;0.7;505.8;
113;2019-12-02 04:12:01;15;52;17.2;80;0.5;1021.8;0.0;0.0;S;1025.0;-2.5;0.5;505.8;
114;2019-12-02 04:27:01;15;52;17.2;80;0.9;1022.4;0.0;0.0;S;1025.6;-2.2;0.9;505.8;
115;2019-12-02 04:42:01;15;52;17.2;79;1.0;1022.2;0.0;0.0;E;1025.4;-2.2;1.0;505.8;
116;2019-12-02 04:57:01;15;52;17.1;79;0.7;1022.4;0.0;0.0;SE;1025.6;-2.5;0.7;505.8;
117;2019-12-02 05:12:01;15;52;17.1;80;0.7;1022.5;0.0;0.0;S;1025.7;-2.3;0.7;505.8;
118;2019-12-02 05:27:01;15;52;17.1;80;0.7;1022.7;0.0;0.0;S;1025.9;-2.3;0.7;505.8;
119;2019-12-02 05:42:01;15;52;17.1;80;0.6;1023.1;0.0;0.0;S;1026.3;-2.4;0.6;505.8;
120;2019-12-02 05:57:01;15;52;17.1;80;0.3;1023.1;0.0;0.0;S;1026.3;-2.7;0.3;505.8;
121;2019-12-02 06:12:01;15;52;17.2;80;0.0;1023.4;0.0;0.0;S;1026.6;-3.0;0.0;505.8;
122;2019-12-02 06:27:01;15;52;17.2;80;0.1;1023.7;0.0;0.0;S;1026.9;-2.9;0.1;505.8;
123;2019-12-02 06:42:01;15;52;17.1;81;0.0;1023.7;0.0;0.0;S;1026.9;-2.9;0.0;505.8;
124;2019-12-02 06:57:01;15;51;16.9;81;0.1;1023.8;0.0;0.0;S;1027.0;-2.8;0.1;505.8;
125;2019-12-02 07:12:01;15;51;17.0;81;0.0;1024.2;0.0;0.0;S;1027.4;-2.9;0.0;505.8;
126;2019-12-02 07:27:01;15;52;16.9;81;-0.1;1024.2;0.0;0.0;S;1027.4;-3.0;-0.1;505.8;
127;2019-12-02 07:42:01;15;51;17.0;82;0.0;1024.2;0.0;0.0;S;1027.4;-2.7;0.0;505.8;
128;2019-12-02 07:57:01;15;51;17.0;82;0.1;1024.5;0.0;0.0;S;1027.7;-2.6;0.1;505.8;
129;2019-12-02 08:12:01;15;52;16.9;82;0.1;1024.7;0.0;0.0;S;1027.9;-2.6;0.1;505.8;
130;2019-12-02 08:27:01;15;52;16.9;82;0.5;1025.0;0.0;0.0;S;1028.2;-2.2;0.5;505.8;
131;2019-12-02 08:42:01;15;52;16.9;82;0.8;1025.2;0.0;0.0;S;1028.4;-1.9;0.8;505.8;
132;2019-12-02 08:57:01;15;52;16.9;82;1.3;1025.3;0.0;0.0;S;1028.5;-1.4;1.3;505.8;
133;2019-12-02 09:12:01;15;52;16.9;82;1.7;1025.4;0.0;0.0;S;1028.6;-1.0;1.7;505.8;
134;2019-12-02 09:27:01;15;51;17.0;82;2.1;1025.6;0.0;0.0;S;1028.8;-0.6;2.1;505.8;
135;2019-12-02 09:42:01;15;51;17.0;81;2.5;1025.8;0.0;0.0;S;1029.0;-0.4;2.5;505.8;
136;2019-12-02 09:57:01;15;51;17.0;80;3.1;1026.1;0.0;0.0;S;1029.3;-0.0;3.1;505.8;
137;2019-12-02 10:12:01;15;51;17.1;79;3.5;1026.0;0.0;0.0;S;1029.2;0.2;3.5;505.8;
138;2019-12-02 10:27:01;15;51;17.2;77;4.0;1026.1;0.0;0.0;S;1029.3;0.3;4.0;505.8;
139;2019-12-02 10:42:01;15;51;17.2;75;4.5;1025.8;0.0;0.0;S;1029.0;0.5;4.5;505.8;
140;2019-12-02 10:57:01;15;51;17.3;74;5.0;1025.9;0.0;0.0;S;1029.1;0.8;5.0;505.8;
141;2019-12-02 11:12:01;15;51;17.2;72;6.0;1025.7;0.0;0.0;S;1028.9;1.3;6.0;505.8;
142;2019-12-02 11:27:01;15;51;17.3;71;6.2;1025.9;0.0;0.0;S;1029.1;1.3;6.2;505.8;
143;2019-12-02 11:42:01;15;51;17.3;70;6.3;1026.0;0.0;0.0;S;1029.2;1.2;6.3;505.8;
144;2019-12-02 11:57:01;15;51;17.3;64;7.5;1026.2;0.0;0.0;S;1029.4;1.1;7.5;505.8;
145;2019-12-02 12:12:01;15;51;17.3;62;8.5;1025.8;0.0;0.0;S;1029.0;1.6;8.5;505.8;
146;2019-12-02 12:27:01;15;51;17.2;59;9.8;1025.6;0.0;0.0;S;1028.8;2.2;9.8;505.8;
147;2019-12-02 12:42:01;15;51;17.3;56;10.3;1025.7;0.0;0.0;S;1028.9;1.9;10.3;505.8;
148;2019-12-02 12:57:01;15;51;17.2;55;10.3;1025.7;0.0;0.0;S;1028.9;1.7;10.3;505.8;
149;2019-12-02 13:12:01;15;51;17.2;53;11.7;1025.4;0.0;0.0;S;1028.6;2.4;11.7;505.8;
150;2019-12-02 13:27:01;15;51;17.2;54;10.7;1025.6;0.0;0.0;E;1028.8;1.8;10.7;505.8;
151;2019-12-02 13:42:01;15;51;17.3;54;9.7;1025.5;0.0;0.0;S;1028.7;0.8;9.7;505.8;
152;2019-12-02 13:57:01;15;52;17.3;60;8.1;1025.4;0.0;0.0;S;1028.6;0.8;8.1;505.8;
153;2019-12-02 14:12:01;15;51;17.3;67;7.1;1025.5;0.0;0.0;S;1028.7;1.4;7.1;505.8;
154;2019-12-02 14:27:01;15;51;17.3;70;6.8;1025.5;0.0;0.0;S;1028.7;1.7;6.8;505.8;
155;2019-12-02 14:42:01;15;51;17.4;71;6.8;1025.7;0.0;0.0;S;1028.9;1.9;6.8;505.8;
156;2019-12-02 14:57:01;15;51;17.3;71;6.8;1026.0;0.0;0.0;S;1029.2;1.9;6.8;505.8;
157;2019-12-02 15:12:01;15;51;17.2;72;6.6;1026.0;0.0;0.0;S;1029.2;1.9;6.6;505.8;
158;2019-12-02 15:27:01;15;51;17.3;73;6.6;1026.1;0.0;0.0;S;1029.3;2.1;6.6;505.8;
159;2019-12-02 15:42:01;15;51;17.2;73;6.6;1026.0;0.0;0.0;S;1029.2;2.1;6.6;505.8;
160;2019-12-02 15:57:01;15;52;17.3;73;6.5;1025.8;0.0;0.0;S;1029.0;2.0;6.5;505.8;
161;2019-12-02 16:12:01;15;52;17.3;73;6.3;1025.9;0.0;0.0;S;1029.1;1.8;6.3;505.8;
162;2019-12-02 16:27:01;15;52;17.3;74;6.1;1025.7;0.0;0.0;S;1028.9;1.8;6.1;505.8;
163;2019-12-02 16:42:01;15;52;17.2;75;5.9;1025.6;0.0;0.0;S;1028.8;1.8;5.9;505.8;
164;2019-12-02 16:57:01;15;52;17.3;77;5.4;1026.0;0.0;0.0;S;1029.2;1.7;5.4;505.8;
165;2019-12-02 17:12:01;15;52;17.2;80;5.1;1026.1;0.0;0.0;E;1029.3;1.9;5.1;505.8;
166;2019-12-02 17:27:01;15;52;17.3;80;5.1;1026.1;0.0;0.0;SE;1029.3;1.9;5.1;505.8;
167;2019-12-02 17:42:01;15;53;17.3;81;5.1;1026.0;0.0;0.0;SE;1029.2;2.1;5.1;505.8;
168;2019-12-02 17:57:01;15;53;17.3;81;4.8;1026.0;0.0;0.0;SE;1029.2;1.8;4.8;505.8;
169;2019-12-02 18:12:01;15;59;17.4;81;4.7;1025.8;0.0;0.0;SE;1029.0;1.7;4.7;505.8;
170;2019-12-02 18:27:01;15;59;17.7;81;4.3;1026.1;0.0;0.0;SE;1029.3;1.3;4.3;505.8;
171;2019-12-02 18:42:01;15;60;17.9;81;3.9;1026.0;0.0;0.0;SE;1029.2;0.9;3.9;505.8;
172;2019-12-02 18:57:01;15;62;18.1;82;4.0;1025.9;0.0;0.0;E;1029.1;1.2;4.0;505.8;
173;2019-12-02 19:12:01;15;66;18.2;84;4.2;1025.8;0.0;0.0;SE;1029.0;1.7;4.2;505.8;
174;2019-12-02 19:27:01;15;67;18.3;85;4.3;1025.9;0.0;0.0;SE;1029.1;2.0;4.3;505.8;
175;2019-12-02 19:42:01;15;66;18.3;85;4.3;1026.2;0.0;0.0;E;1029.4;2.0;4.3;505.8;
176;2019-12-02 19:57:01;15;65;18.3;85;4.5;1026.2;0.0;0.0;E;1029.4;2.2;4.5;505.8;
177;2019-12-02 20:12:01;15;65;18.3;85;4.3;1026.6;0.0;0.0;E;1029.8;2.0;4.3;505.8;
178;2019-12-02 20:27:01;15;63;18.3;85;4.1;1026.5;0.0;0.0;E;1029.7;1.8;4.1;505.8;
179;2019-12-02 20:42:01;15;62;18.2;85;4.0;1026.6;0.0;0.0;E;1029.8;1.7;4.0;505.8;
180;2019-12-02 20:57:01;15;62;18.1;85;3.6;1026.5;0.0;0.0;E;1029.7;1.3;3.6;505.8;
181;2019-12-02 21:12:01;15;61;18.1;85;3.4;1026.6;0.0;0.0;E;1029.8;1.1;3.4;505.8;
182;2019-12-02 21:27:01;15;61;18.0;85;3.4;1026.6;0.0;0.0;E;1029.8;1.1;3.4;505.8;
183;2019-12-02 21:41:59;15;61;17.9;86;4.0;1026.5;0.0;0.0;E;1029.7;1.9;4.0;505.8;
184;2019-12-02 21:56:59;15;60;17.9;86;3.8;1026.5;0.0;0.0;SE;1029.7;1.7;3.8;505.8;
185;2019-12-02 22:12:00;15;60;17.9;86;3.5;1026.5;0.0;0.0;E;1029.7;1.4;3.5;505.8;
186;2019-12-02 22:27:00;15;60;17.8;86;3.2;1026.4;0.0;0.0;E;1029.6;1.1;3.2;505.8;
187;2019-12-02 22:42:00;15;59;17.8;86;3.0;1026.2;0.0;0.0;SE;1029.4;0.9;3.0;505.8;
188;2019-12-02 22:57:00;15;59;17.8;86;3.1;1026.4;0.0;0.0;E;1029.6;1.0;3.1;505.8;
189;2019-12-02 23:12:00;15;59;17.7;86;3.3;1026.4;0.0;0.0;E;1029.6;1.2;3.3;505.8;
190;2019-12-02 23:27:00;15;59;17.7;86;3.2;1026.8;0.0;0.0;E;1030.0;1.1;3.2;505.8;
191;2019-12-02 23:42:00;15;59;17.6;86;3.2;1026.5;0.0;0.0;E;1029.7;1.1;3.2;505.8;
192;2019-12-02 23:57:00;15;58;17.7;86;3.0;1026.5;0.0;0.0;E;1029.7;0.9;3.0;505.8;
193;2019-12-03 00:12:00;15;58;17.5;86;2.9;1026.4;0.0;0.0;E;1029.6;0.8;2.9;505.8;
194;2019-12-03 00:27:00;15;58;17.4;86;2.7;1026.3;0.0;0.0;E;1029.5;0.6;2.7;505.8;
195;2019-12-03 00:42:00;15;58;17.3;86;2.5;1026.0;0.0;0.0;E;1029.2;0.4;2.5;505.8;
196;2019-12-03 00:57:00;15;58;17.3;86;2.4;1026.1;0.0;0.0;E;1029.3;0.3;2.4;505.8;
197;2019-12-03 01:12:00;15;57;17.2;86;2.3;1026.2;0.0;0.0;SE;1029.4;0.2;2.3;505.8;
198;2019-12-03 01:27:00;15;57;17.2;86;2.3;1026.3;0.0;0.0;E;1029.5;0.2;2.3;505.8;
199;2019-12-03 01:42:00;15;58;17.1;86;2.4;1026.5;0.0;0.0;E;1029.7;0.3;2.4;505.8;
200;2019-12-03 01:57:00;15;58;17.1;87;2.5;1026.7;0.0;0.0;SE;1029.9;0.6;2.5;505.8;
201;2019-12-03 02:12:00;15;58;17.1;87;2.3;1026.3;0.0;0.0;E;1029.5;0.4;2.3;505.8;
202;2019-12-03 02:27:00;15;58;17.1;87;2.3;1026.4;0.0;0.0;E;1029.6;0.4;2.3;505.8;
203;2019-12-03 02:42:00;15;58;17.1;87;2.2;1026.2;0.0;0.0;E;1029.4;0.3;2.2;505.8;
204;2019-12-03 02:57:00;15;57;17.1;87;2.3;1026.5;0.0;0.0;SE;1029.7;0.4;2.3;505.8;
205;2019-12-03 03:12:00;15;57;17.1;86;2.1;1026.3;0.0;0.0;SE;1029.5;0.0;2.1;505.8;
206;2019-12-03 03:27:00;15;56;17.1;86;1.9;1026.2;0.0;0.0;SE;1029.4;-0.2;1.9;505.8;
207;2019-12-03 03:42:00;15;56;17.1;87;2.0;1026.2;0.0;0.0;SE;1029.4;0.1;2.0;505.8;
208;2019-12-03 03:57:00;15;56;17.1;87;2.5;1026.4;0.0;0.0;SE;1029.6;0.6;2.5;505.8;
209;2019-12-03 04:12:00;15;56;17.0;87;2.7;1026.2;0.0;0.0;E;1029.4;0.8;2.7;505.8;
210;2019-12-03 04:27:00;15;55;17.0;87;2.6;1026.0;0.0;0.0;E;1029.2;0.7;2.6;505.8;
211;2019-12-03 04:42:00;15;55;17.0;88;2.9;1026.2;0.0;0.0;SE;1029.4;1.1;2.9;505.8;
212;2019-12-03 04:57:00;15;56;17.0;88;3.0;1026.1;0.0;0.0;E;1029.3;1.2;3.0;505.8;
213;2019-12-03 05:12:00;15;56;17.0;88;3.2;1026.1;0.0;0.0;SE;1029.3;1.4;3.2;505.8;
214;2019-12-03 05:27:00;15;56;17.0;88;3.2;1026.2;0.0;0.0;E;1029.4;1.4;3.2;505.8;
215;2019-12-03 05:42:00;15;56;17.0;88;3.4;1026.0;0.0;0.0;SE;1029.2;1.6;3.4;505.8;
216;2019-12-03 05:57:00;15;56;17.0;89;3.5;1025.8;0.0;0.0;E;1029.0;1.9;3.5;505.8;
217;2019-12-03 06:12:00;15;57;17.1;89;3.6;1025.6;0.0;0.0;SE;1028.8;2.0;3.6;505.8;
218;2019-12-03 06:27:00;15;58;17.1;89;3.7;1025.9;0.0;0.0;SE;1029.1;2.1;3.7;505.8;
219;2019-12-03 06:42:00;15;57;16.9;89;3.6;1025.9;0.0;0.0;E;1029.1;2.0;3.6;505.8;
220;2019-12-03 06:57:00;15;56;16.9;89;3.6;1026.1;0.0;0.0;E;1029.3;2.0;3.6;505.8;
221;2019-12-03 07:12:00;15;56;16.9;89;3.7;1026.3;0.0;0.0;E;1029.5;2.1;3.7;505.8;
222;2019-12-03 07:27:00;15;56;16.9;89;3.7;1026.1;0.0;0.0;E;1029.3;2.1;3.7;505.8;
223;2019-12-03 07:42:00;15;56;16.9;89;3.8;1026.2;0.0;0.0;SE;1029.4;2.2;3.8;505.8;
224;2019-12-03 07:57:00;15;55;16.9;89;3.9;1026.3;0.0;0.0;E;1029.5;2.3;3.9;505.8;
225;2019-12-03 08:12:00;15;56;16.9;90;4.0;1026.2;0.0;0.0;E;1029.4;2.5;4.0;505.8;
226;2019-12-03 08:27:00;15;56;16.9;90;4.1;1026.2;0.0;0.0;SE;1029.4;2.6;4.1;505.8;
227;2019-12-03 08:42:00;15;56;16.9;90;4.2;1026.1;0.0;0.0;SE;1029.3;2.7;4.2;505.8;
228;2019-12-03 08:57:00;15;56;16.9;90;4.3;1026.2;0.0;0.0;E;1029.4;2.8;4.3;505.8;
229;2019-12-03 09:12:00;15;57;16.9;90;4.7;1026.1;0.0;0.0;E;1029.3;3.2;4.7;505.8;
230;2019-12-03 09:27:00;15;55;17.0;90;4.8;1025.8;0.0;0.0;E;1029.0;3.3;4.8;505.8;
231;2019-12-03 09:42:00;15;55;17.0;90;4.9;1026.3;0.0;0.0;E;1029.5;3.4;4.9;505.8;
232;2019-12-03 09:57:00;15;55;17.0;90;5.0;1026.2;0.0;0.0;E;1029.4;3.5;5.0;505.8;
233;2019-12-03 10:12:00;15;55;17.0;90;5.1;1026.0;0.0;0.0;SE;1029.2;3.6;5.1;505.8;
234;2019-12-03 10:27:00;15;55;17.0;90;5.5;1025.8;0.0;0.0;E;1029.0;4.0;5.5;505.8;
235;2019-12-03 10:42:00;15;54;17.0;90;5.9;1025.7;0.0;0.0;E;1028.9;4.4;5.9;505.8;
236;2019-12-03 10:57:00;15;54;17.0;89;6.2;1025.7;0.0;0.0;E;1028.9;4.5;6.2;505.8;
237;2019-12-03 11:12:00;15;54;17.1;87;6.4;1025.4;0.0;0.0;E;1028.6;4.4;6.4;505.8;
238;2019-12-03 11:27:00;15;54;17.0;85;6.3;1025.2;0.0;0.0;E;1028.4;4.0;6.3;505.8;
239;2019-12-03 11:42:00;15;54;17.1;83;6.8;1024.8;0.0;0.0;E;1028.0;4.1;6.8;505.8;
240;2019-12-03 11:57:00;15;54;17.0;82;6.6;1024.7;0.0;0.0;E;1027.9;3.7;6.6;505.8;
241;2019-12-03 12:12:00;15;54;17.0;81;6.6;1024.6;0.0;0.0;SE;1027.8;3.6;6.6;505.8;
242;2019-12-03 12:27:00;15;54;17.0;81;6.2;1024.2;0.0;0.0;E;1027.4;3.2;6.2;505.8;
243;2019-12-03 12:42:00;15;55;17.0;81;6.2;1024.2;0.0;0.0;SE;1027.4;3.2;6.2;505.8;
244;2019-12-03 12:57:00;15;55;17.0;81;6.1;1023.9;0.0;0.0;SE;1027.1;3.1;6.1;505.8;
245;2019-12-03 13:12:00;15;55;17.0;81;6.2;1023.7;0.0;0.0;E;1026.9;3.2;6.2;505.8;
246;2019-12-03 13:27:00;15;55;17.0;81;6.3;1023.7;0.0;0.0;SE;1026.9;3.3;6.3;505.8;
247;2019-12-03 13:42:00;15;54;17.1;80;6.3;1023.4;0.0;0.0;SE;1026.6;3.1;6.3;505.8;
248;2019-12-03 13:57:00;15;54;17.1;80;6.5;1023.1;0.0;0.0;E;1026.3;3.3;6.5;505.8;
249;2019-12-03 14:12:00;15;54;17.1;80;6.3;1023.0;0.0;0.0;E;1026.2;3.1;6.3;505.8;
250;2019-12-03 14:27:00;15;54;17.1;80;6.2;1022.9;0.0;0.0;E;1026.1;3.0;6.2;505.8;
251;2019-12-03 14:42:00;15;54;17.1;80;5.8;1022.9;0.0;0.0;E;1026.1;2.6;5.8;505.8;
252;2019-12-03 14:57:00;15;53;17.1;81;5.8;1022.8;0.0;0.0;SE;1026.0;2.8;5.8;505.8;
253;2019-12-03 15:12:00;15;53;17.1;81;5.6;1022.7;0.0;0.0;E;1025.9;2.6;5.6;505.8;
254;2019-12-03 15:27:00;15;53;17.0;82;5.5;1022.4;0.0;0.0;E;1025.6;2.7;5.5;505.8;
255;2019-12-03 15:42:00;15;53;17.0;82;5.3;1022.2;0.0;0.0;E;1025.4;2.5;5.3;505.8;
256;2019-12-03 15:57:00;15;54;17.0;82;5.1;1022.4;0.0;0.0;ESE;1025.6;2.3;5.1;505.8;
257;2019-12-03 16:12:00;15;54;17.0;83;5.1;1022.2;0.0;0.0;E;1025.4;2.5;5.1;505.8;
258;2019-12-03 16:27:00;15;54;17.0;83;5.1;1022.5;0.0;0.0;SE;1025.7;2.5;5.1;505.8;
259;2019-12-03 16:42:00;15;54;17.0;84;5.0;1022.1;0.0;0.0;NE;1025.3;2.5;5.0;505.8;
260;2019-12-03 16:57:00;15;54;17.0;84;5.1;1022.5;0.0;0.0;SE;1025.7;2.6;5.1;505.8;
261;2019-12-03 17:12:00;15;54;17.1;84;5.1;1022.1;0.0;0.0;E;1025.3;2.6;5.1;505.8;
262;2019-12-03 17:27:00;15;54;17.1;84;5.0;1021.9;0.0;0.0;SE;1025.1;2.5;5.0;505.8;
263;2019-12-03 17:42:00;15;54;17.1;85;5.0;1022.0;0.0;0.0;E;1025.2;2.7;5.0;505.8;
264;2019-12-03 17:57:00;15;55;17.2;85;5.0;1021.9;0.0;0.0;SE;1025.1;2.7;5.0;505.8;
265;2019-12-03 18:12:00;15;55;17.2;85;5.0;1022.0;0.0;0.0;E;1025.2;2.7;5.0;505.8;
266;2019-12-03 18:27:00;15;55;17.3;85;5.1;1022.1;0.0;0.0;E;1025.3;2.8;5.1;505.8;
267;2019-12-03 18:42:00;15;54;17.3;85;5.0;1022.2;0.0;0.0;E;1025.4;2.7;5.0;505.8;
268;2019-12-03 18:57:00;15;55;17.4;86;5.0;1022.0;0.0;0.0;E;1025.2;2.9;5.0;505.8;
269;2019-12-03 19:12:00;15;58;17.6;85;4.9;1022.0;0.0;0.0;SE;1025.2;2.6;4.9;505.8;
270;2019-12-03 19:27:00;15;65;17.7;85;4.8;1021.9;0.0;0.0;E;1025.1;2.5;4.8;505.8;
271;2019-12-03 19:42:00;15;63;17.9;85;4.3;1021.7;0.0;0.0;E;1024.9;2.0;4.3;505.8;
272;2019-12-03 19:57:00;15;62;17.9;85;4.7;1021.6;0.0;0.0;SE;1024.8;2.4;4.7;505.8;
273;2019-12-03 20:12:00;15;62;18.1;86;4.7;1021.4;0.0;0.0;E;1024.6;2.6;4.7;505.8;
274;2019-12-03 20:27:00;15;60;18.1;86;4.5;1021.5;0.0;0.0;SE;1024.7;2.4;4.5;505.8;
275;2019-12-03 20:42:00;15;60;18.1;85;4.1;1021.4;0.0;0.0;E;1024.6;1.8;4.1;505.8;
276;2019-12-03 20:57:00;15;60;18.1;85;3.7;1021.0;0.0;0.0;E;1024.2;1.4;3.7;505.8;
277;2019-12-03 21:12:00;15;60;18.2;85;3.7;1021.0;0.0;0.0;E;1024.2;1.4;3.7;505.8;
278;2019-12-03 21:27:00;15;60;18.2;85;3.5;1020.8;0.0;0.0;E;1024.0;1.2;3.5;505.8;
279;2019-12-03 21:42:00;15;60;18.3;85;3.2;1020.7;0.0;0.0;E;1023.9;0.9;3.2;505.8;
280;2019-12-03 21:56:59;15;60;18.3;86;3.1;1020.7;0.0;0.0;SE;1023.9;1.0;3.1;505.8;
281;2019-12-03 22:11:59;15;59;18.3;85;2.6;1020.6;0.0;0.0;E;1023.8;0.3;2.6;505.8;
282;2019-12-03 22:27:00;15;59;18.3;86;2.8;1020.2;0.0;0.0;E;1023.4;0.7;2.8;505.8;
283;2019-12-03 22:42:00;15;58;18.2;86;2.8;1020.2;0.0;0.0;E;1023.4;0.7;2.8;505.8;
284;2019-12-03 22:57:00;15;57;18.2;86;2.6;1020.1;0.0;0.0;E;1023.3;0.5;2.6;505.8;
285;2019-12-03 23:12:00;15;57;18.2;86;2.5;1020.0;0.0;0.0;E;1023.2;0.4;2.5;505.8;
286;2019-12-03 23:27:00;15;57;18.1;86;2.6;1020.0;0.0;0.0;SE;1023.2;0.5;2.6;505.8;
287;2019-12-03 23:42:00;15;56;18.1;86;2.3;1019.7;0.0;0.0;E;1022.9;0.2;2.3;505.8;
288;2019-12-03 23:57:00;15;56;18.0;86;2.1;1019.3;0.0;0.0;E;1022.5;0.0;2.1;505.8;
289;2019-12-04 00:12:00;15;56;17.7;86;2.1;1019.4;0.0;0.0;E;1022.6;0.0;2.1;505.8;
290;2019-12-04 00:27:00;15;56;17.6;86;2.0;1019.3;0.0;0.0;SE;1022.5;-0.1;2.0;505.8;
291;2019-12-04 00:42:00;15;56;17.4;87;2.2;1019.1;0.0;0.0;E;1022.3;0.3;2.2;505.8;
292;2019-12-04 00:57:00;15;55;17.3;87;2.2;1019.2;0.0;0.0;SE;1022.4;0.3;2.2;505.8;
293;2019-12-04 01:12:00;15;55;17.3;87;2.3;1019.2;0.0;0.0;SE;1022.4;0.4;2.3;505.8;